Regional Weather Roundup
Issued by NWS

Home | Current Version | Previous Version | Text Only | Print | Product List | Glossary Off
Versions: 1 2 3 4 5 6 7 8 9 10 11 12 13 14 15 16 17 18 19 20 21 22 23 24 25 26 27 28 29 30 31 32 33 34 35 36 37 38 39 40 41 42 43 44 45 46 47 48 49 50

000
ASUS43 KLOT 160512
RWRIL

ILLINOIS REGIONAL WEATHER ROUNDUP
NATIONAL WEATHER SERVICE CHICAGO/ROMEOVILLE IL
1100 PM CST SUN JAN 15 2017

NOTE: "FAIR" INDICATES FEW OR NO CLOUDS BELOW 12,000 FEET WITH NO
SIGNIFICANT WEATHER AND/OR OBSTRUCTIONS TO VISIBILITY.

* THESE STATIONS ARE NOT UNDER NWS QUALITY CONTROL. THEY ALSO MAY NOT
  REPORT WEATHER SUCH AS PRECIPITATION OR FOG.

ILZ001-002-007-009-015-016-024-160600-
NORTHWEST ILLINOIS

CITY           SKY/WX    TMP DP  RH WIND       PRES   REMARKS
MOLINE         CLOUDY    33  26  75 E6        30.26F WCI  28
STERLING*      CLOUDY    30  27  88 NE5       30.29S FOG     WCI  25
SAVANNA*       CLOUDY    30  22  73 E3        30.28F
$$

ILZ003-004-008-010-011-017-018-160600-
NORTH CENTRAL ILLINOIS

CITY           SKY/WX    TMP DP  RH WIND       PRES   REMARKS
ROCKFORD       CLOUDY    28  22  78 CALM      30.30F
FREEPORT*      CLOUDY    27  22  84 CALM      30.30F
ROCHELLE*      CLOUDY    30  26  86 E3        30.30S
DE KALB*       CLOUDY    30  25  82 E5        30.30S WCI  25
$$

ILZ005-006-012>014-019>023-160600-
NORTHEAST ILLINOIS

CITY           SKY/WX    TMP DP  RH WIND       PRES   REMARKS
CHICAGO-OHARE  CLOUDY    31  24  75 SE3       30.29F
CHICAGO-MIDWAY CLOUDY    33  25  72 E3        30.31S
AURORA         PTCLDY    31  25  78 E3        30.30S HAZE
LANSING*       PTCLDY    32  29  91 CALM      30.32S
JOLIET*        PTCLDY    33  30  89 CALM      30.31F FOG
WAUKEGAN       MOCLDY    25  21  85 CALM      30.30F FOG
DUPAGE AIRPORT PTCLDY    31  23  72 CALM      30.29F
KANKAKEE*      CLOUDY    32  28  83 CALM      30.32S
WHEELING       CLOUDY    28  21  75 CALM      30.32F
MORRIS*        CLOUDY    32  29  89 CALM      30.29F FOG
ROMEOVILLE*    MOCLDY    31  30  96 E3        30.30F
NORTHERLY ISL    N/A     31  27  85 SE1         N/A
$$

LMZ740>746-160600-
SOUTHERN LAKE MICHIGAN

STATION/POSITION SKY/WX   TEMP    WIND        PRES    VSBY  WAVE
                          AIR SEA DIR/SP/G                  HT/PER
                          (F)     (DEG/KT/KT) (MB)    (MI)  (FT/S)
HARRISON CRIB              33     140/  8/  8   N/A
BURNHAM HARBOR             31      CALM  /  3   N/A
CALUMET HARBOR             31      50/  3/  4 1025.7F
BURNS HARBOR               32      70/  7/  8 1027.1F
MICHIGAN CITY              31     100/  5/  6   N/A
$$

ILZ025>027-034>036-040-047-049-050-058-095>099-160600-
WEST-CENTRAL ILLINOIS

CITY           SKY/WX    TMP DP  RH WIND       PRES   REMARKS
QUINCY         CLOUDY    32  31  96 E6        30.21F FOG     WCI  26
GALESBURG*     CLOUDY    32  29  89 E5        30.24F WCI  27
MACOMB*        CLOUDY    32  31  97 E7        30.27S FOG     WCI  26
JACKSONVILLE*  CLOUDY    32  32  99 E5        30.23F FOG     WCI  28
PITTSFIELD*    CLOUDY    33  32  99 E5        30.23F FOG     WCI  28
$$

ILZ028>032-037-038-041>044-048-051>054-059>061-160600-
CENTRAL ILLINOIS

CITY           SKY/WX    TMP DP  RH WIND       PRES   REMARKS
PONTIAC        CLOUDY    33  33  99 SE6       30.30S FOG     WCI  28
BLOOMINGTON    CLOUDY    32  30  92 E9        30.27F FOG     WCI  24
DECATUR        CLOUDY    33  33 100 E6        30.27F FOG     WCI  28
PEORIA         CLOUDY    33  30  88 E7        30.27F FOG     WCI  27
LACON*         CLOUDY    33  29  86 CALM      30.27F
LINCOLN*       CLOUDY    34  33  96 E7        30.26F FOG     WCI  28
SPRINGFIELD    CLOUDY    34  32  92 E5        30.26F FOG     WCI  30
TAYLORVILLE    CLOUDY    33  32  97 E6        30.25F FOG     WCI  27
$$

ILZ033-039-045-046-055>057-062-063-160600-
EAST-CENTRAL ILLINOIS

CITY           SKY/WX    TMP DP  RH WIND       PRES   REMARKS
CHAMPAIGN      CLOUDY    33  31  92 E8        30.27F FOG     WCI  26
RANTOUL*       CLOUDY    34  32  93 E7        30.27F FOG     WCI  28
MATTOON        CLOUDY    34  33  96 SE8       30.24F FOG     WCI  27
PARIS*         CLOUDY    33  33  97 E3        30.29F FOG
$$

ILZ079-100>102-160600-
SOUTHWEST ILLINOIS

CITY           SKY/WX    TMP DP  RH WIND       PRES   REMARKS
ALTON          CLOUDY    35  35  99 E5        30.24F FOG     WCI  31
BELLEVILLE     FOG       37  37 100 E5        30.22F VSB 3/4 WCI  34
CAHOKIA*       CLOUDY    38  36  92 E3        30.22F FOG
SPARTA*        FOG       38  37  99 E6        30.24F VSB 1/2 WCI  33
$$

ILZ064>066-069>071-074>076-080>082-084>086-088>090-092>094-160600-
SOUTH-CENTRAL ILLINOIS

CITY           SKY/WX    TMP DP  RH WIND       PRES   REMARKS
CARBONDALE     CLOUDY    39  39 100 E3        30.23F FOG
CAIRO*         CLOUDY    40  40 100 NE5       30.22F FOG
EFFINGHAM*     CLOUDY    37  37 100 E6        30.27F FOG     WCI  32
MARION         CLOUDY    41  41 100 CALM      30.24F FOG
MT. VERNON     CLOUDY    39  38  96 E3        30.24F FOG
CENTRALIA*     CLOUDY    39  39 100 E5        30.23F FOG
SALEM*         CLOUDY    39  37  95 CALM      30.24F FOG
METROPOLIS*    CLOUDY    42  41  97 CALM      30.24F FOG
$$

ILZ067-068-072-073-078-083-087-091-160600-
SOUTHEAST ILLINOIS

CITY           SKY/WX    TMP DP  RH WIND       PRES   REMARKS
LAWRENCEVILLE  CLOUDY    39  38  96 E6        30.28F FOG     WCI  35
FLORA*         CLOUDY    39  38  97 E3        30.26F FOG
FAIRFIELD*     CLOUDY    39  39 100 CALM      30.25S FOG
HARRISBURG*    CLOUDY    40  40 100 E5        30.25F FOG
ROBINSON*      CLOUDY    37  36  98 E3        30.29F FOG
CARMI*         CLOUDY    40  40 100 CALM      30.25F FOG
$$

ABBREVIATIONS USED IN REMARKS
   TC - TEMPERATURE IN CELSIUS
  WCI - WIND CHILL INDEX
   HX - HEAT INDEX
  VSB - VISIBILITY
$$





USA.gov is the U.S. government's official web portal to all federal, state and local government web resources and services.